Time,TemperatureF,DewpointF,PressureIn,WindDirection,WindDirectionDegrees,WindSpeedMPH,WindSpeedGustMPH,Humidity,HourlyPrecipIn,Conditions,Clouds,dailyrainin,SoftwareType,DateUTC
2013-01-08 00:00:00,32.0,-99.9,-100.00,North,-999,-999.0,-999.0,-999,-99.99,,,-99.99,,2013-01-08 08:00:00,
2013-01-08 00:53:00,32.0,-99.9,-100.00,North,-999,-999.0,-999.0,-999,-99.99,,,-99.99,,2013-01-08 08:53:00,
2013-01-08 01:00:00,31.0,-99.9,-100.00,North,-999,-999.0,-999.0,-999,-99.99,,,-99.99,,2013-01-08 09:00:00,
2013-01-08 01:53:00,31.0,-99.9,-100.00,North,-999,-999.0,-999.0,-999,-99.99,,,-99.99,,2013-01-08 09:53:00,
2013-01-08 02:00:00,29.0,-99.9,-100.00,North,-999,-999.0,-999.0,-999,-99.99,,,0.00,,2013-01-08 10:00:00,
2013-01-08 02:53:00,29.0,-99.9,-100.00,North,-999,-999.0,-999.0,-999,-99.99,,,0.00,,2013-01-08 10:53:00,
2013-01-08 03:00:00,27.0,-99.9,-100.00,North,-999,-999.0,-999.0,-999,-99.99,,,-99.99,,2013-01-08 11:00:00,
2013-01-08 03:53:00,27.0,-99.9,-100.00,North,-999,-999.0,-999.0,-999,-99.99,,,-99.99,,2013-01-08 11:53:00,
2013-01-08 04:00:00,27.0,-99.9,-100.00,North,-999,-999.0,-999.0,-999,-99.99,,,-99.99,,2013-01-08 12:00:00,
2013-01-08 04:53:00,27.0,-99.9,-100.00,North,-999,-999.0,-999.0,-999,-99.99,,,-99.99,,2013-01-08 12:53:00,
2013-01-08 05:00:00,28.0,-99.9,-100.00,North,-999,-999.0,-999.0,-999,-99.99,,,0.00,,2013-01-08 13:00:00,
2013-01-08 05:53:00,28.0,-99.9,-100.00,North,-999,-999.0,-999.0,-999,-99.99,,,0.00,,2013-01-08 13:53:00,
2013-01-08 06:00:00,29.0,-99.9,-100.00,North,-999,-999.0,-999.0,-999,-99.99,,,-99.99,,2013-01-08 14:00:00,
2013-01-08 06:53:00,29.0,-99.9,-100.00,North,-999,-999.0,-999.0,-999,-99.99,,,-99.99,,2013-01-08 14:53:00,
2013-01-08 07:00:00,29.0,-99.9,-100.00,North,-999,-999.0,-999.0,-999,-99.99,,,-99.99,,2013-01-08 15:00:00,
2013-01-08 07:53:00,29.0,-99.9,-100.00,North,-999,-999.0,-999.0,-999,-99.99,,,-99.99,,2013-01-08 15:53:00,
2013-01-08 08:00:00,31.0,-99.9,-100.00,North,-999,-999.0,-999.0,-999,-99.99,,,-99.99,,2013-01-08 16:00:00,
2013-01-08 08:53:00,31.0,-99.9,-100.00,North,-999,-999.0,-999.0,-999,-99.99,,,-99.99,,2013-01-08 16:53:00,
2013-01-08 09:00:00,38.0,-99.9,-100.00,North,-999,-999.0,-999.0,-999,-99.99,,,-99.99,,2013-01-08 17:00:00,
2013-01-08 09:54:00,38.0,-99.9,-100.00,North,-999,-999.0,-999.0,-999,-99.99,,,-99.99,,2013-01-08 17:54:00,
2013-01-08 10:00:00,41.0,-99.9,-100.00,North,-999,-999.0,-999.0,-999,-99.99,,,0.00,,2013-01-08 18:00:00,
2013-01-08 10:54:00,41.0,-99.9,-100.00,North,-999,-999.0,-999.0,-999,-99.99,,,0.00,,2013-01-08 18:54:00,
2013-01-08 11:00:00,45.0,-99.9,-100.00,North,-999,-999.0,-999.0,-999,-99.99,,,-99.99,,2013-01-08 19:00:00,
2013-01-08 11:53:00,45.0,-99.9,-100.00,North,-999,-999.0,-999.0,-999,-99.99,,,-99.99,,2013-01-08 19:53:00,
2013-01-08 12:00:00,51.0,-99.9,-100.00,North,-999,-999.0,-999.0,-999,-99.99,,,-99.99,,2013-01-08 20:00:00,
2013-01-08 12:54:00,51.0,-99.9,-100.00,North,-999,-999.0,-999.0,-999,-99.99,,,-99.99,,2013-01-08 20:54:00,
2013-01-08 13:00:00,52.0,-99.9,-100.00,North,-999,-999.0,-999.0,-999,-99.99,,,0.00,,2013-01-08 21:00:00,
2013-01-08 13:54:00,52.0,-99.9,-100.00,North,-999,-999.0,-999.0,-999,-99.99,,,0.00,,2013-01-08 21:54:00,
2013-01-08 14:00:00,54.0,-99.9,-100.00,North,-999,-999.0,-999.0,-999,-99.99,,,0.00,,2013-01-08 22:00:00,
2013-01-08 14:53:00,54.0,-99.9,-100.00,North,-999,-999.0,-999.0,-999,-99.99,,,0.00,,2013-01-08 22:53:00,
2013-01-08 15:00:00,50.0,-99.9,-100.00,North,-999,-999.0,-999.0,-999,-99.99,,,0.01,,2013-01-08 23:00:00,
2013-01-08 15:53:00,50.0,-99.9,-100.00,North,-999,-999.0,-999.0,-999,-99.99,,,0.01,,2013-01-08 23:53:00,
2013-01-08 16:00:00,43.0,-99.9,-100.00,North,-999,-999.0,-999.0,-999,-99.99,,,0.00,,2013-01-09 00:00:00,
2013-01-08 16:53:00,43.0,-99.9,-100.00,North,-999,-999.0,-999.0,-999,-99.99,,,0.00,,2013-01-09 00:53:00,
2013-01-08 17:00:00,38.0,-99.9,-100.00,North,-999,-999.0,-999.0,-999,-99.99,,,0.00,,2013-01-09 01:00:00,
2013-01-08 17:53:00,38.0,-99.9,-100.00,North,-999,-999.0,-999.0,-999,-99.99,,,0.00,,2013-01-09 01:53:00,
2013-01-08 18:00:00,33.0,-99.9,-100.00,North,-999,-999.0,-999.0,-999,-99.99,,,0.00,,2013-01-09 02:00:00,
2013-01-08 18:53:00,33.0,-99.9,-100.00,North,-999,-999.0,-999.0,-999,-99.99,,,0.00,,2013-01-09 02:53:00,
2013-01-08 19:00:00,31.0,-99.9,-100.00,North,-999,-999.0,-999.0,-999,-99.99,,,0.01,,2013-01-09 03:00:00,
2013-01-08 19:53:00,31.0,-99.9,-100.00,North,-999,-999.0,-999.0,-999,-99.99,,,0.01,,2013-01-09 03:53:00,
2013-01-08 20:00:00,31.0,-99.9,-100.00,North,-999,-999.0,-999.0,-999,-99.99,,,-99.99,,2013-01-09 04:00:00,
2013-01-08 20:53:00,31.0,-99.9,-100.00,North,-999,-999.0,-999.0,-999,-99.99,,,-99.99,,2013-01-09 04:53:00,
2013-01-08 21:00:00,31.0,-99.9,-100.00,North,-999,-999.0,-999.0,-999,-99.99,,,-99.99,,2013-01-09 05:00:00,
2013-01-08 21:53:00,31.0,-99.9,-100.00,North,-999,-999.0,-999.0,-999,-99.99,,,-99.99,,2013-01-09 05:53:00,
2013-01-08 22:00:00,32.0,-99.9,-100.00,North,-999,-999.0,-999.0,-999,-99.99,,,0.00,,2013-01-09 06:00:00,
2013-01-08 22:53:00,32.0,-99.9,-100.00,North,-999,-999.0,-999.0,-999,-99.99,,,0.00,,2013-01-09 06:53:00,
2013-01-08 23:00:00,34.0,-99.9,-100.00,North,-999,-999.0,-999.0,-999,-99.99,,,-99.99,,2013-01-09 07:00:00,
2013-01-08 23:53:00,34.0,-99.9,-100.00,North,-999,-999.0,-999.0,-999,-99.99,,,-99.99,,2013-01-09 07:53:00,